Weather History for Spokane, WA

Change the Weather History Date:

Monday, April 1, 2013

  Actual Average Record
Temperature  
Mean Temperature 55 °F 44 °F  
Max Temperature 70 °F 54 °F 77 °F (1900)
Min Temperature 40 °F 35 °F 14 °F (1936)
Degree Days  
Heating Degree Days 10 21  
Month to date heating degree days 10 21  
Since 1 July heating degree days 5277 5617  
Cooling Degree Days 0 0  
Month to date cooling degree days 0 0  
Year to date cooling degree days 0 0  
Growing Degree Days 4 (Base 50)    
Moisture  
Dew Point 35 °F    
Average Humidity 52    
Maximum Humidity 79    
Minimum Humidity 24    
Precipitation  
Precipitation 0.00 in 0.05 in 0.67 in (1978)
Month to date precipitation 0.00 0.05  
Year to date precipitation 3.19 4.78  
Snow  
Snow 0.00 in 0.10 in 2.40 in (1920)
Month to date snowfall 0.0 0.1  
Since 1 July snowfall 43.5 43.9  
Snow Depth 0.00 in    
Sea Level Pressure  
Sea Level Pressure 29.95 in    
Wind  
Wind Speed 5 mph (ENE)    
Max Wind Speed 15 mph    
Max Gust Speed 20 mph    
Visibility 10 miles    
Events      
T = Trace of Precipitation, MM = Missing Value Source: NWS Daily Summary

Daily Weather History Graph

Daily Weather History Graph

Search for Another Location

Airport:

Trip Planner

Search our weather history database for the weather conditions in past years. The results will help you decide how hot, cold, wet, or windy it might be!

Date:

Astronomy

Apr. 01, 2013 Rise Set
Actual Time 6:28 AM PDT 7:20 PM PDT
Civil Twilight 5:56 AM PDT 7:51 PM PDT
Nautical Twilight 5:19 AM PDT 8:29 PM PDT
Astronomical Twilight 4:40 AM PDT 9:08 PM PDT
Moon 12:51 AM PDT (4/1) 10:00 AM PDT (4/1)
Length of Visible Light 13h 54m
Length of Day
12h 52m
Waning Gibbous, 66% of the Moon is Illuminated
Apr 1
Waning Gibbous
Apr 2
Last Quarter
Apr 10
New
Apr 18
First Quarter
Apr 25
Full

Hourly Weather History & Observations

Time (PDT) Temp. Windchill Dew Point Humidity Pressure Visibility Wind Dir Wind Speed Gust Speed Precip Events Conditions
12:53 AM 42.1 °F - 33.1 °F 70% 29.93 in 10.0 mi Calm Calm - N/A   Clear
1:53 AM 45.0 °F 42.6 °F 34.0 °F 65% 29.93 in 10.0 mi ENE 4.6 mph - N/A   Partly Cloudy
2:53 AM 46.0 °F 43.9 °F 34.0 °F 63% 29.93 in 10.0 mi ENE 4.6 mph - N/A   Mostly Cloudy
3:53 AM 43.0 °F 41.3 °F 34.0 °F 71% 29.93 in 10.0 mi ENE 3.5 mph - N/A   Mostly Cloudy
4:53 AM 43.0 °F 41.3 °F 34.0 °F 71% 29.93 in 10.0 mi NE 3.5 mph - N/A   Scattered Clouds
5:53 AM 41.0 °F 38.0 °F 33.1 °F 73% 29.94 in 10.0 mi NNE 4.6 mph - N/A   Scattered Clouds
6:53 AM 39.9 °F 36.7 °F 33.1 °F 77% 29.95 in 10.0 mi NNE 4.6 mph - N/A   Scattered Clouds
7:53 AM 45.0 °F 43.5 °F 35.1 °F 68% 29.96 in 10.0 mi NNE 3.5 mph - N/A   Scattered Clouds
8:53 AM 48.9 °F - 33.1 °F 54% 29.97 in 10.0 mi NE 9.2 mph - N/A   Scattered Clouds
9:53 AM 51.1 °F - 35.1 °F 54% 29.98 in 10.0 mi NE 5.8 mph - N/A   Scattered Clouds
10:53 AM 55.9 °F - 35.1 °F 45% 29.98 in 10.0 mi Calm Calm - N/A   Mostly Cloudy
11:53 AM 61.0 °F - 35.1 °F 38% 29.97 in 10.0 mi ESE 4.6 mph - N/A   Mostly Cloudy
12:53 PM 63.0 °F - 36.0 °F 37% 29.97 in 10.0 mi Calm Calm - N/A   Mostly Cloudy
1:53 PM 66.9 °F - 37.0 °F 33% 29.95 in 10.0 mi Variable 3.5 mph - N/A   Mostly Cloudy
2:53 PM 69.1 °F - 34.0 °F 27% 29.93 in 10.0 mi ENE 4.6 mph - N/A   Mostly Cloudy
3:53 PM 68.0 °F - 30.0 °F 24% 29.93 in 10.0 mi Calm Calm - N/A   Mostly Cloudy
4:53 PM 69.1 °F - 32.0 °F 25% 29.92 in 10.0 mi Calm Calm - N/A   Mostly Cloudy
5:53 PM 69.1 °F - 32.0 °F 25% 29.92 in 10.0 mi WSW 3.5 mph - N/A   Mostly Cloudy
6:53 PM 64.0 °F - 37.0 °F 37% 29.93 in 10.0 mi SW 6.9 mph - N/A   Mostly Cloudy
7:53 PM 60.1 °F - 37.0 °F 42% 29.94 in 10.0 mi SW 5.8 mph - N/A   Partly Cloudy
8:53 PM 55.9 °F - 37.0 °F 49% 29.96 in 10.0 mi SW 6.9 mph - N/A   Partly Cloudy
9:53 PM 54.0 °F - 37.0 °F 53% 29.96 in 10.0 mi SW 8.1 mph - N/A   Clear
10:53 PM 53.1 °F - 36.0 °F 52% 29.96 in 10.0 mi SW 10.4 mph - N/A   Clear
11:53 PM 52.0 °F - 37.0 °F 57% 29.96 in 10.0 mi SW 12.7 mph - N/A   Clear